Domov               UVHVVR             MKGP            O straneh              
ZDRAVSTVENO VARSTVO RASTLIN
  MREŽA AGROMET. POSTAJ
 ► PROGNOSTIČNA OBVESTILA
AGROMETEOROLOŠKI PODATKI -
ARSO
OBVLADOVANJE TVEGANJ ZARADI
NEUGODNIH VREMENSKIH RAZMER
  ► NARAVNE NESREČE
  ► SUŠA/MOČA
  ► NAMAKANJE
  ► ŽLED (gozdarstvo)
KARTOGRAFSKI PRIKAZI
SPLETNE POVEZAVE
PROJEKTI IN PUBLIKACIJE

AGROMETEOROLOŠKA MREŽA: VREMENSKE POSTAJE IN FENOLOŠKA OPAZOVANJA

Pregled podatkov za lokacijo Črnomelj, meteorološka postaja 859096

Pregled senzorjev na lokaciji

ID Ime Zadnja
vrednost
Datum
zadnje
spremembe
Tip
senzorja
4082 Omočenost lista (U) 1 U 25.2.2018 15:45 A730WET
4083 Padavine (mm) 0 mm 25.2.2018 15:45 Rain-O-Matic
4081 Relativna vlaga 2 m (% RH) 67,61 % RH 25.2.2018 15:45 50YA
4080 Temperatura 2 m (°C) -6,17 °C 25.2.2018 15:45 50YA

Pregled podatkov zadnjih 24 ur

Zap.
št.
Datum in čas Črnomelj
Omočenost
lista
Padavine Relativna
vlaga
2
m
Temperatura
2
m
1 25.2.2018 16:00
2 25.2.2018 15:30 1 0 67,1 -6,2
3 25.2.2018 15:00 1 0 67,9 -5,8
4 25.2.2018 14:30 1 0 68 -6,2
5 25.2.2018 14:00 1 0 69,3 -6,1
6 25.2.2018 13:30 1 0 69,3 -5,9
7 25.2.2018 13:00 1 0 69,5 -5,8
8 25.2.2018 12:30 1 0 72 -6
9 25.2.2018 12:00 1 0 74,8 -6,1
10 25.2.2018 11:30 1 0 78,2 -6,9
11 25.2.2018 11:00 1 0 78,1 -6,7
12 25.2.2018 10:30 1 0 81,4 -7,2
13 25.2.2018 10:00 1 0 82,5 -7,5
14 25.2.2018 09:30 1 0 83,2 -7,6
15 25.2.2018 09:00 1 0 82 -7,8
16 25.2.2018 08:30 1 0 79,2 -7,9
17 25.2.2018 08:00 1 0 82,1 -8
18 25.2.2018 07:30 1 0 84,9 -8
19 25.2.2018 07:00 1 0 79,2 -7,9
20 25.2.2018 06:30 1 0 80,2 -8,1
21 25.2.2018 06:00 1 0 76,9 -7,8
22 25.2.2018 05:30 1 0 80 -8,3
23 25.2.2018 05:00 1 0 81,8 -8,6
24 25.2.2018 04:30 1 0 83,5 -8,6
25 25.2.2018 04:00 1 0 81 -7,3
26 25.2.2018 03:30 1 0 91,6 -7,9
27 25.2.2018 03:00 1 0 93,2 -7,5
28 25.2.2018 02:30 1 0 88 -7
29 25.2.2018 02:00 1 0 83,2 -6,4
30 25.2.2018 01:30 1 0 78,4 -5,7
31 25.2.2018 01:00 1 0 77,8 -5,6
32 25.2.2018 00:30 1 0 74,3 -5,2
33 25.2.2018 00:00 1 0 85,4 -5,1
34 24.2.2018 23:30 1 0 86,8 -4,7
35 24.2.2018 23:00 1 0 83,1 -4,3
36 24.2.2018 22:30 1 0 84,5 -4,2
37 24.2.2018 22:00 1 0 80,6 -3,8
38 24.2.2018 21:30 1 0 89,1 -3,9
39 24.2.2018 21:00 1 0 92,4 -3,8
40 24.2.2018 20:30 1 0 96,1 -3,9
41 24.2.2018 20:00 1 0 94,2 -3,8
42 24.2.2018 19:30 1 0 93,2 -3,7
43 24.2.2018 19:00 1 0 95,2 -3,6
44 24.2.2018 18:30 1 0 95,1 -3,4
45 24.2.2018 18:00 1 0 92,5 -3,1
46 24.2.2018 17:30 1 0 91,3 -2,7
47 24.2.2018 17:00 1 0 91,4 -2,3
48 24.2.2018 16:30 1 0 90,3 -2
© 2011 Ministrstvo za kmetijstvo, gozdarstvo in prehrano. Vse pravice pridržane.